EN

Hourly Weather Bononia

Today, 14 May, Friday

Time Temperature Precipitation Wind Pressure Humidity
00:00 +10°C° 0 mm 3 mps 727 mmHg 94%
01:00 +10°C° 0 mm 3 mps 728 mmHg 94%
02:00 +9°C° 0 mm 3 mps 728 mmHg 94%
03:00 +9°C° 0 mm 3 mps 728 mmHg 95%
04:00 +9°C° 0 mm 3 mps 728 mmHg 95%
05:00 +8°C° 0 mm 4 mps 728 mmHg 95%
06:00 +10°C° 0 mm 4 mps 728 mmHg 92%
07:00 +11°C° 0 mm 4 mps 728 mmHg 89%
08:00 +12°C° 0 mm 5 mps 728 mmHg 86%
09:00 +12°C° 0 mm 5 mps 729 mmHg 86%
10:00 +12°C° 0 mm 5 mps 729 mmHg 86%
11:00 +13°C° 0 mm 5 mps 729 mmHg 87%
12:00 +13°C° 0.1 mm 5 mps 729 mmHg 87%
13:00 +13°C° 0.1 mm 4 mps 730 mmHg 88%
14:00 +13°C° 0.1 mm 4 mps 730 mmHg 88%
15:00 +13°C° 0.6 mm 4 mps 730 mmHg 86%
16:00 +14°C° 0.6 mm 4 mps 730 mmHg 84%
17:00 +15°C° 0.6 mm 4 mps 730 mmHg 82%
18:00 +14°C° 0.8 mm 4 mps 730 mmHg 85%
19:00 +13°C° 0.8 mm 4 mps 731 mmHg 88%
20:00 +13°C° 0.8 mm 4 mps 731 mmHg 92%
21:00 +12°C° 0.1 mm 4 mps 731 mmHg 93%
22:00 +11°C° 0.1 mm 4 mps 732 mmHg 94%
23:00 +11°C° 0.1 mm 4 mps 732 mmHg 95%

Tomorrow, 15 May, Saturday

Time Temperature Precipitation Wind Pressure Humidity
00:00 +10°C° 0 mm 4 mps 733 mmHg 96%
01:00 +10°C° 0 mm 4 mps 733 mmHg 96%
02:00 +8°C° 0 mm 4 mps 733 mmHg 97%
03:00 +8°C° 0 mm 4 mps 734 mmHg 96%
04:00 +8°C° 0 mm 3 mps 734 mmHg 96%
05:00 +8°C° 0 mm 3 mps 734 mmHg 96%
06:00 +9°C° 0 mm 3 mps 734 mmHg 91%
07:00 +10°C° 0 mm 3 mps 735 mmHg 87%
08:00 +11°C° 0 mm 4 mps 735 mmHg 83%
09:00 +13°C° 0 mm 4 mps 735 mmHg 76%
10:00 +14°C° 0 mm 4 mps 735 mmHg 70%
11:00 +15°C° 0 mm 4 mps 735 mmHg 63%
12:00 +15°C° 0 mm 4 mps 735 mmHg 62%
13:00 +17°C° 0 mm 3 mps 735 mmHg 60%
14:00 +17°C° 0 mm 3 mps 735 mmHg 59%
15:00 +18°C° 0.1 mm 2 mps 735 mmHg 59%
16:00 +18°C° 0.1 mm 2 mps 735 mmHg 59%
17:00 +18°C° 0.1 mm 2 mps 735 mmHg 60%
18:00 +18°C° 0.1 mm 1 mps 734 mmHg 66%
19:00 +15°C° 0.1 mm 1 mps 734 mmHg 73%
20:00 +14°C° 0.1 mm 1 mps 734 mmHg 79%
21:00 +13°C° 0 mm 1 mps 734 mmHg 82%
22:00 +12°C° 0 mm 2 mps 734 mmHg 84%
23:00 +10°C° 0 mm 2 mps 734 mmHg 87%

Day after tomorrow, 16 May, Sunday

Time Temperature Precipitation Wind Pressure Humidity
00:00 +10°C° 0 mm 2 mps 734 mmHg 88%
01:00 +10°C° 0 mm 2 mps 734 mmHg 89%
02:00 +10°C° 0 mm 2 mps 734 mmHg 90%
03:00 +10°C° 0 mm 2 mps 734 mmHg 92%
04:00 +9°C° 0 mm 2 mps 734 mmHg 93%
05:00 +9°C° 0 mm 3 mps 733 mmHg 94%
06:00 +11°C° 0 mm 3 mps 733 mmHg 88%
07:00 +13°C° 0 mm 3 mps 733 mmHg 82%
08:00 +14°C° 0 mm 4 mps 733 mmHg 75%
09:00 +17°C° 0.1 mm 4 mps 733 mmHg 70%
10:00 +18°C° 0.1 mm 4 mps 733 mmHg 64%
11:00 +20°C° 0.1 mm 5 mps 733 mmHg 59%
12:00 +20°C° 0.2 mm 5 mps 733 mmHg 58%
13:00 +20°C° 0.2 mm 5 mps 733 mmHg 57%
14:00 +20°C° 0.2 mm 5 mps 733 mmHg 56%
15:00 +19°C° 0.3 mm 5 mps 733 mmHg 64%
16:00 +16°C° 0.3 mm 5 mps 732 mmHg 71%
17:00 +15°C° 0.3 mm 5 mps 732 mmHg 78%
18:00 +14°C° 0.2 mm 4 mps 732 mmHg 83%
19:00 +13°C° 0.2 mm 3 mps 733 mmHg 87%
20:00 +13°C° 0.2 mm 2 mps 733 mmHg 92%
21:00 +13°C° 0.6 mm 2 mps 733 mmHg 93%
22:00 +12°C° 0.6 mm 2 mps 733 mmHg 95%
23:00 +12°C° 0.6 mm 2 mps 733 mmHg 96%

17 May, Monday

Time Temperature Precipitation Wind Pressure Humidity
00:00 +10°C° 0 mm 2 mps 734 mmHg 96%
01:00 +10°C° 0 mm 2 mps 734 mmHg 96%
02:00 +9°C° 0 mm 2 mps 734 mmHg 96%
03:00 +8°C° 0 mm 2 mps 734 mmHg 96%
04:00 +8°C° 0 mm 2 mps 734 mmHg 96%
05:00 +7°C° 0 mm 2 mps 734 mmHg 96%
06:00 +9°C° 0 mm 2 mps 734 mmHg 91%
07:00 +12°C° 0 mm 2 mps 735 mmHg 85%
08:00 +13°C° 0 mm 2 mps 735 mmHg 80%
09:00 +15°C° 0 mm 2 mps 735 mmHg 72%
10:00 +16°C° 0 mm 2 mps 734 mmHg 64%
11:00 +18°C° 0 mm 2 mps 734 mmHg 56%
12:00 +19°C° 0 mm 2 mps 734 mmHg 53%
13:00 +19°C° 0 mm 2 mps 734 mmHg 50%
14:00 +20°C° 0 mm 2 mps 734 mmHg 46%
15:00 +20°C° 0 mm 2 mps 733 mmHg 47%
16:00 +20°C° 0 mm 2 mps 733 mmHg 48%
17:00 +20°C° 0 mm 2 mps 733 mmHg 49%
18:00 +18°C° 0.8 mm 3 mps 733 mmHg 64%
19:00 +16°C° 0.8 mm 3 mps 733 mmHg 78%
20:00 +12°C° 0.8 mm 3 mps 733 mmHg 93%
21:00 +12°C° 0.6 mm 3 mps 733 mmHg 94%
22:00 +13°C° 0.6 mm 2 mps 733 mmHg 95%
23:00 +12°C° 0.6 mm 2 mps 733 mmHg 96%

18 May, Tuesday

Time Temperature Precipitation Wind Pressure Humidity
00:00 +12°C° 2.1 mm 2 mps 733 mmHg 96%
01:00 +12°C° 2.1 mm 2 mps 733 mmHg 96%
02:00 +11°C° 2.1 mm 3 mps 733 mmHg 96%
03:00 +10°C° 0.4 mm 3 mps 733 mmHg 96%
04:00 +10°C° 0.4 mm 3 mps 733 mmHg 96%
05:00 +10°C° 0.4 mm 3 mps 733 mmHg 95%
06:00 +10°C° 0 mm 3 mps 733 mmHg 91%
07:00 +11°C° 0 mm 4 mps 734 mmHg 87%
08:00 +12°C° 0 mm 5 mps 734 mmHg 82%
09:00 +13°C° 0 mm 5 mps 734 mmHg 75%
10:00 +14°C° 0 mm 5 mps 735 mmHg 67%
11:00 +15°C° 0 mm 5 mps 735 mmHg 60%
12:00 +15°C° 0.2 mm 5 mps 735 mmHg 62%
13:00 +15°C° 0.2 mm 4 mps 735 mmHg 63%
14:00 +15°C° 0.2 mm 4 mps 735 mmHg 64%
15:00 +15°C° 0.2 mm 4 mps 735 mmHg 64%
16:00 +15°C° 0.2 mm 4 mps 735 mmHg 63%
17:00 +15°C° 0.2 mm 4 mps 735 mmHg 63%
18:00 +14°C° 0.1 mm 3 mps 735 mmHg 69%
19:00 +13°C° 0.1 mm 2 mps 735 mmHg 75%
20:00 +12°C° 0.1 mm 2 mps 735 mmHg 81%
21:00 +11°C° 0 mm 1 mps 735 mmHg 83%
22:00 +10°C° 0 mm 1 mps 735 mmHg 85%
23:00 +10°C° 0 mm 1 mps 736 mmHg 86%

19 May, Wednesday

Time Temperature Precipitation Wind Pressure Humidity
00:00 +9°C° 0 mm 1 mps 736 mmHg 88%
01:00 +8°C° 0 mm 2 mps 736 mmHg 90%
02:00 +8°C° 0 mm 2 mps 736 mmHg 92%
03:00 +7°C° 0 mm 2 mps 736 mmHg 92%
04:00 +7°C° 0 mm 2 mps 736 mmHg 93%
05:00 +7°C° 0 mm 2 mps 737 mmHg 94%
06:00 +8°C° 0 mm 2 mps 737 mmHg 88%
07:00 +10°C° 0 mm 3 mps 737 mmHg 83%
08:00 +11°C° 0 mm 3 mps 738 mmHg 77%
09:00 +13°C° 0 mm 3 mps 738 mmHg 70%
10:00 +14°C° 0 mm 3 mps 738 mmHg 64%
11:00 +15°C° 0 mm 4 mps 738 mmHg 57%
12:00 +15°C° 0.1 mm 4 mps 738 mmHg 57%
13:00 +15°C° 0.1 mm 4 mps 738 mmHg 57%
14:00 +15°C° 0.1 mm 4 mps 738 mmHg 57%
15:00 +15°C° 0 mm 4 mps 738 mmHg 56%
16:00 +16°C° 0 mm 3 mps 738 mmHg 56%
17:00 +16°C° 0 mm 3 mps 739 mmHg 55%
18:00 +14°C° 0 mm 3 mps 739 mmHg 63%
19:00 +12°C° 0 mm 3 mps 739 mmHg 70%
20:00 +11°C° 0 mm 3 mps 739 mmHg 78%
21:00 +10°C° 0 mm 3 mps 740 mmHg 81%
22:00 +9°C° 0 mm 2 mps 740 mmHg 84%
23:00 +8°C° 0 mm 2 mps 741 mmHg 87%
Show more

We Need Your Consent

Meteoprog and our Service Providers may store and access personal data such as cookies, device identifiers or other similar technologies on your device and process such data to personalise content and ads, as well as provide social media features and to analyse the traffic.

  • Store and/or access information on your device

    Cookies, device identifiers or other information can be stored or accessed on your device for the purposes indicated above.

  • Personalised ads and content, ad and content measurement, audience insights, and products development

    Ads and content can be personalised based on a profile. More data can be added to better personalise ads and content. Ad and content performance can be measured. Insights about the audience who saw the ads and content can be derived. Such data can be used to develop or improve user’s experience, systems and software.

By clicking ‘I Agree’ you will allow the use of indicated cookies, device identifiers, web beacons or other similar technologies. Your settings can be changed in the browser on your device.

For certain purposes, legitimate interests may be relied on, rather than consent. You can read more about this in our Privacy and Cookie Policy.